Home > Weather > Honolulu > Past weeks

Flag for USA Past Weather in Honolulu, Hawaii, USA — Yesterday and Last 2 Weeks

Now
77 °F

Rain. Fog.


Feels Like: 78 °F
Forecast: 75 / 84 °F
Wind: 6 mph from North

Location: Honolulu International Airport

Current Time: Aug 24, 2016 at 6:17:05 AM

Latest Report: Aug 24, 2016 at 5:26 AM


Visibility: 5 mi

Pressure: 29.94 "Hg

Humidity: 94%

Dew Point: 75 °F

Location of HonoluluLocation

Past Weather in Honolulu — Graph

°F

Honolulu Temperature Yesterday

Maximum temperature yesterday: 85 °F (at 2:53 PM)
Minimum temperature yesterday: 76 °F (at 11:53 PM)
Average temperature yesterday: 81 °F

High & Low Weather Summary for the Past Weeks

 TemperatureHumidityPressure
High91 °F (Aug 12, 5:53 PM)96% (Aug 22, 3:53 AM)30.06 "Hg (Aug 22, 3:53 AM)
Low74 °F (Aug 17, 5:53 AM)43% (Aug 12, 1:53 PM)29.85 "Hg (Aug 22, 3:53 PM)
Average81 °F68%29.96 "Hg
* Reported Aug 9 4:53 AM — Aug 24 4:50 AM, Honolulu, Weather by CustomWeather, © 2016

Note: Actual official high and low records may vary slightly from our data, if they occured in-between our weather recording intervals... More about our weather records

Advertising

Honolulu Weather History for the Previous 24 Hours

Scroll right to see more
 ConditionsComfort  
Time TempWeatherWind HumidityBarometerVisibility
4:50 AM
Wed, Aug 24
78 °FLight rain. Partly cloudy.12 mph93%29.92 "Hg7 mi
4:36 AM79 °FHeavy rain. Fog.12 mph89%29.92 "Hg2 mi
4:05 AM79 °FPartly cloudy.8 mph89%29.92 "Hg10 mi
3:53 AM79 °FThunderstorms. Partly cloudy.6 mph90%29.91 "Hg10 mi
3:29 AM79 °FThunderstorms. Partly cloudy.6 mph89%29.91 "Hg10 mi
2:53 AM77 °FStrong thunderstorms. Fog.3 mph94%29.91 "Hg3 mi
2:18 AM77 °FThunderstorms. Partly cloudy.5 mph94%29.91 "Hg10 mi
1:59 AM77 °FStrong thunderstorms. Fog.5 mph94%29.92 "Hg2 mi
1:53 AM77 °FStrong thunderstorms. Fog.6 mph94%29.92 "Hg2 mi
12:53 AM78 °FThunderstorms. Partly cloudy.No wind90%29.92 "Hg10 mi
11:53 PM
Tue, Aug 23
76 °FThunderstorms. Fog.6 mph94%29.93 "Hg3 mi
11:00 PM79 °FPartly cloudy.No wind89%29.93 "Hg10 mi
10:27 PM79 °FThunderstorms. Partly cloudy.No wind89%29.94 "Hg10 mi
9:53 PM78 °FLight rain. Partly cloudy.3 mph90%29.94 "Hg9 mi
8:53 PM79 °FPartly cloudy.3 mph88%29.93 "Hg10 mi
7:53 PM79 °FPartly cloudy.10 mph84%29.92 "Hg10 mi
6:53 PM82 °FBroken clouds.6 mph77%29.90 "Hg10 mi
5:53 PM82 °FBroken clouds.13 mph77%29.89 "Hg10 mi
4:53 PM84 °FBroken clouds.8 mph67%29.88 "Hg10 mi
3:53 PM84 °FBroken clouds.8 mph65%29.87 "Hg10 mi
2:53 PM85 °FBroken clouds.8 mph63%29.87 "Hg10 mi
1:53 PM84 °FCloudy.7 mph65%29.89 "Hg10 mi
1:38 PM84 °FPartly sunny.8 mph66%29.89 "Hg10 mi
12:53 PM84 °FCloudy.7 mph63%29.90 "Hg10 mi
11:53 AM84 °FCloudy.10 mph67%29.90 "Hg10 mi
10:53 AM82 °FMostly cloudy.6 mph74%29.91 "Hg10 mi
9:53 AM81 °FCloudy.6 mph74%29.93 "Hg10 mi
8:53 AM81 °FBroken clouds.5 mph74%29.92 "Hg10 mi
7:53 AM81 °FBroken clouds.8 mph72%29.90 "Hg10 mi
6:53 AM80 °FBroken clouds.6 mph74%29.89 "Hg10 mi
Weather by CustomWeather, © 2016

See weather overviewHow to use our weather pages